This is the latest recevied weather packets stored in our database for station/object KU9TRY. If no packets are shown the sender has not sent any weather packets the latest 10 day(s).
| Time | Temp. | Humidity | Pressure | Rain* | Wind** | Luminosity | Snow |
|---|---|---|---|---|---|---|---|
| 1777865201 | 7.78° C | 86% | 1017 hPa | 0 mm | - | 0 W/m² | - |
| 1777864898 | 7.78° C | 86% | 1017.1 hPa | 0 mm | - | 0 W/m² | - |
| 1777864596 | 7.78° C | 86% | 1017 hPa | 0 mm | - | 0 W/m² | - |
| 1777864292 | 7.78° C | 85% | 1017.2 hPa | 0 mm | - | 0 W/m² | - |
| 1777863989 | 8.33° C | 84% | 1017 hPa | 0 mm | - | 0 W/m² | - |
| 1777863685 | 8.33° C | 84% | 1017 hPa | 0 mm | - | 0 W/m² | - |
| 1777863382 | 8.33° C | 83% | 1017.4 hPa | 0 mm | - | 0 W/m² | - |
| 1777863079 | 8.33° C | 83% | 1017 hPa | 0 mm | - | 0 W/m² | - |
| 1777862777 | 8.89° C | 82% | 1017.2 hPa | 0 mm | - | 0 W/m² | - |
| 1777862473 | 8.89° C | 81% | 1016.9 hPa | 0 mm | - | 0 W/m² | - |
| 1777862169 | 8.89° C | 82% | 1016.9 hPa | 0 mm | - | 0 W/m² | - |
| 1777861865 | 9.44° C | 79% | 1017 hPa | 0 mm | - | 0 W/m² | - |
| 1777861562 | 9.44° C | 77% | 1016.7 hPa | 0 mm | - | 0 W/m² | - |
| 1777861258 | 9.44° C | 78% | 1016.7 hPa | 0 mm | - | 0 W/m² | - |
| 1777860956 | 9.44° C | 78% | 1017 hPa | 0 mm | - | 0 W/m² | - |
| 1777860652 | 10° C | 75% | 1016.6 hPa | 0 mm | - | 0 W/m² | - |
| 1777860349 | 10° C | 72% | 1016.6 hPa | 0 mm | - | 0 W/m² | - |
| 1777860045 | 10° C | 72% | 1016.3 hPa | 0 mm | - | 0 W/m² | - |
| 1777859742 | 10° C | 72% | 1016.2 hPa | 0 mm | - | 0 W/m² | - |
| 1777859438 | 10° C | 72% | 1016.2 hPa | 0 mm | - | 0 W/m² | - |
| 1777859134 | 10° C | 72% | 1016.2 hPa | 0 mm | - | 0 W/m² | - |
| 1777858832 | 10° C | 71% | 1016.1 hPa | 0 mm | - | 0 W/m² | - |
| 1777858529 | 10.56° C | 74% | 1015.8 hPa | 0 mm | - | 0 W/m² | - |
| 1777858226 | 10.56° C | 71% | 1016 hPa | 0 mm | - | 0 W/m² | - |
| 1777857924 | 11.11° C | 66% | 1016 hPa | 0 mm | - | 0 W/m² | - |
* Rain latest hour (hover to see other rain measurements)
** Current wind speed in m/s (hover to see current wind gust speed)